Weather History for Huntsville Madison, AL

Change the Weather History Date:

Monday, November 11, 2013

  Actual Average (KHSV) Record (KHSV)
Temperature  
Mean Temperature 49 °F 54 °F  
Max Temperature 66 °F 66 °F 81 °F (1945)
Min Temperature 32 °F 43 °F 22 °F (1946)
Degree Days  
Heating Degree Days 16 11  
Month to date heating degree days 104  
Since 1 July heating degree days 255  
Cooling Degree Days 0 0  
Month to date cooling degree days 7  
Year to date cooling degree days 1947  
Moisture  
Dew Point 22 °F    
Average Humidity 56    
Maximum Humidity 100    
Minimum Humidity 4    
Precipitation  
Precipitation 0.00 in 0.14 in 1.77 in (1935)
Month to date precipitation 1.58  
Year to date precipitation 45.21  
Snow  
Snow 0.00 in - - ()
Month to date snowfall  
Since 1 July snowfall  
Since 1 September snowfall  
Snow Depth -    
Sea Level Pressure  
Sea Level Pressure 30.24 in    
Wind  
Wind Speed 0 mph (North)    
Max Wind Speed 0 mph    
Max Gust Speed -    
Visibility 10 miles    
Events      
T = Trace of Precipitation, MM = Missing Value Source: NWS Daily Summary

Daily Weather History Graph

Daily Weather History Graph

Search for Another Location

Airport:

Trip Planner

Search our weather history database for the weather conditions in past years. The results will help you decide how hot, cold, wet, or windy it might be!

Date:

Astronomy

Nov. 11, 2013 Rise Set
Actual Time 6:16 AM CST 4:43 PM CST
Civil Twilight 5:50 AM CST 5:10 PM CST
Nautical Twilight 5:19 AM CST 5:40 PM CST
Astronomical Twilight 4:49 AM CST 6:10 PM CST
Moon 1:11 PM CST (11/11) 12:15 AM CST (11/11)
Length of Visible Light 11h 19m
Length of Day
10h 26m
Waxing Gibbous, 66% of the Moon is Illuminated
Nov 11
Waxing Gibbous
Nov 17
Full
Nov 25
Last Quarter
Dec 2
New
Dec 9
First Quarter

Hourly Weather History & Observations

Time (CST) Temp. Dew Point Humidity Pressure Visibility Wind Dir Wind Speed Gust Speed Precip Events Conditions
12:15 AM 37.4 °F 32.0 °F 81% 30.28 in 10.0 mi Calm Calm - N/A   Clear
12:35 AM 37.4 °F 32.0 °F 81% 30.28 in 10.0 mi Calm Calm - N/A   Clear
12:55 AM 35.6 °F 32.0 °F 87% 30.27 in 10.0 mi Calm Calm - N/A   Clear
1:15 AM 35.6 °F 32.0 °F 87% 30.27 in 10.0 mi Calm Calm - N/A   Clear
1:35 AM 35.6 °F 32.0 °F 87% 30.27 in 10.0 mi Calm Calm - N/A   Clear
1:55 AM 35.6 °F 32.0 °F 87% 30.27 in 10.0 mi Calm Calm - N/A   Clear
2:15 AM 35.6 °F 32.0 °F 87% 30.28 in 10.0 mi Calm Calm - N/A   Clear
2:35 AM 33.8 °F 32.0 °F 93% 30.27 in 10.0 mi Calm Calm - N/A   Clear
2:55 AM 35.6 °F 32.0 °F 87% 30.27 in 10.0 mi Calm Calm - N/A   Clear
3:15 AM 33.8 °F 30.2 °F 87% 30.28 in 10.0 mi Calm Calm - N/A   Clear
3:35 AM 33.8 °F 30.2 °F 87% 30.27 in 10.0 mi Calm Calm - N/A   Clear
3:55 AM 32.0 °F 30.2 °F 93% 30.28 in 10.0 mi Calm Calm - N/A   Clear
4:15 AM 32.0 °F 30.2 °F 93% 30.28 in 10.0 mi Calm Calm - N/A   Clear
4:35 AM 33.8 °F 30.2 °F 87% 30.28 in 10.0 mi Calm Calm - N/A   Clear
4:55 AM 32.0 °F 30.2 °F 93% 30.28 in 10.0 mi Calm Calm - N/A   Clear
5:15 AM 32.0 °F 30.2 °F 93% 30.28 in 10.0 mi Calm Calm - N/A   Clear
5:35 AM 32.0 °F 30.2 °F 93% 30.28 in 10.0 mi Calm Calm - N/A   Clear
5:55 AM 32.0 °F 30.2 °F 93% 30.28 in 10.0 mi Calm Calm - N/A   Clear
6:15 AM 32.0 °F 30.2 °F 93% 30.29 in 10.0 mi Calm Calm - N/A   Clear
6:35 AM 32.0 °F 30.2 °F 93% 30.30 in 10.0 mi Calm Calm - N/A   Clear
6:55 AM 32.0 °F 32.0 °F 100% 30.30 in 10.0 mi Calm Calm - N/A   Clear
7:15 AM 33.8 °F 32.0 °F 93% 30.31 in 10.0 mi Calm Calm - N/A   Clear
7:35 AM 35.6 °F 32.0 °F 87% 30.31 in 10.0 mi Calm Calm - N/A   Clear
7:55 AM 37.4 °F 32.0 °F 81% 30.32 in 10.0 mi Calm Calm - N/A   Clear
8:15 AM 41.0 °F 32.0 °F 70% 30.32 in 10.0 mi Calm Calm - N/A   Clear
8:35 AM 44.6 °F 32.0 °F 61% 30.32 in 10.0 mi Calm Calm - N/A   Clear
8:55 AM 46.4 °F 32.0 °F 57% 30.31 in 10.0 mi Calm Calm - N/A   Clear
9:15 AM 50.0 °F 30.2 °F 47% 30.31 in 10.0 mi Calm Calm - N/A   Clear
9:35 AM 51.8 °F 26.6 °F 38% 30.31 in 10.0 mi Calm Calm - N/A   Clear
9:55 AM 55.4 °F 21.2 °F 26% 30.31 in 10.0 mi Calm Calm - N/A   Clear
10:15 AM 55.4 °F 23.0 °F 29% 30.30 in 10.0 mi Calm Calm - N/A   Clear
10:35 AM 59.0 °F 19.4 °F 22% 30.30 in 10.0 mi Calm Calm - N/A   Clear
10:55 AM 60.8 °F 14.0 °F 16% 30.29 in 10.0 mi Calm Calm - N/A   Clear
11:15 AM 60.8 °F 8.6 °F 13% 30.28 in 10.0 mi Calm Calm - N/A   Clear
11:35 AM 62.6 °F 6.8 °F 11% 30.26 in 10.0 mi Calm Calm - N/A   Clear
11:55 AM 62.6 °F -9.4 °F 5% 30.26 in 10.0 mi Calm Calm - N/A   Clear
12:15 PM 64.4 °F -2.2 °F 7% 30.24 in 10.0 mi Calm Calm - N/A   Clear
12:35 PM 64.4 °F -4.0 °F 6% 30.23 in 10.0 mi Calm Calm - N/A   Clear
12:55 PM 66.2 °F -9.4 °F 5% 30.21 in 10.0 mi Calm Calm - N/A   Clear
1:15 PM 64.4 °F -7.6 °F 5% 30.20 in 10.0 mi Calm Calm - N/A   Clear
1:35 PM 66.2 °F -14.8 °F 4% 30.20 in 10.0 mi Calm Calm - N/A   Clear
1:55 PM 66.2 °F -18.4 °F 4% 30.19 in 10.0 mi Calm Calm - N/A   Clear
2:15 PM 66.2 °F -14.8 °F 4% 30.19 in 10.0 mi Calm Calm - N/A   Clear
2:35 PM 66.2 °F -14.8 °F 4% 30.18 in 10.0 mi Calm Calm - N/A   Clear
2:55 PM 66.2 °F -16.6 °F 4% 30.18 in 10.0 mi Calm Calm - N/A   Clear
3:15 PM 66.2 °F -18.4 °F 4% 30.17 in 10.0 mi Calm Calm - N/A   Clear
3:35 PM 66.2 °F -9.4 °F 5% 30.17 in 10.0 mi Calm Calm - N/A   Clear
3:55 PM 66.2 °F -14.8 °F 4% 30.17 in 10.0 mi Calm Calm - N/A   Clear
4:15 PM 64.4 °F 12.2 °F 13% 30.17 in 10.0 mi Calm Calm - N/A   Clear
4:35 PM 60.8 °F 19.4 °F 20% 30.16 in 10.0 mi Calm Calm - N/A   Clear
4:55 PM 57.2 °F 21.2 °F 25% 30.17 in 10.0 mi Calm Calm - N/A   Clear
5:15 PM 53.6 °F 28.4 °F 38% 30.17 in 10.0 mi Calm Calm - N/A   Clear
5:35 PM 50.0 °F 32.0 °F 50% 30.17 in 10.0 mi Calm Calm - N/A   Clear
6:15 PM 48.2 °F 33.8 °F 58% 30.18 in 10.0 mi Calm Calm - N/A   Clear
6:35 PM 46.4 °F 32.0 °F 57% 30.18 in 10.0 mi Calm Calm - N/A   Clear
6:55 PM 44.6 °F 35.6 °F 71% 30.19 in 10.0 mi Calm Calm - N/A   Clear
7:15 PM 42.8 °F 33.8 °F 70% 30.19 in 10.0 mi Calm Calm - N/A   Clear
7:35 PM 44.6 °F 33.8 °F 66% 30.19 in 10.0 mi Calm Calm - N/A   Clear
7:55 PM 42.8 °F 32.0 °F 66% 30.19 in 10.0 mi Calm Calm - N/A   Scattered Clouds
8:15 PM 42.8 °F 33.8 °F 70% 30.19 in 10.0 mi Calm Calm - N/A   Clear
8:35 PM 42.8 °F 33.8 °F 70% 30.19 in 10.0 mi Calm Calm - N/A   Clear
8:55 PM 42.8 °F 33.8 °F 70% 30.20 in 10.0 mi Calm Calm - N/A   Scattered Clouds
9:15 PM 41.0 °F 33.8 °F 76% 30.20 in 10.0 mi Calm Calm - N/A   Scattered Clouds
9:35 PM 42.8 °F 33.8 °F 70% 30.20 in 10.0 mi Calm Calm - N/A   Scattered Clouds
9:55 PM 42.8 °F 35.6 °F 76% 30.20 in 10.0 mi Calm Calm - N/A   Scattered Clouds
10:15 PM 42.8 °F 35.6 °F 76% 30.20 in 10.0 mi Calm Calm - N/A   Scattered Clouds
10:35 PM 42.8 °F 35.6 °F 76% 30.20 in 10.0 mi Calm Calm - N/A   Scattered Clouds
10:55 PM 42.8 °F 33.8 °F 70% 30.20 in 10.0 mi Calm Calm - N/A   Scattered Clouds
11:15 PM 42.8 °F 35.6 °F 76% 30.20 in 10.0 mi Calm Calm - N/A   Scattered Clouds
11:35 PM 42.8 °F 35.6 °F 76% 30.20 in 10.0 mi Calm Calm - N/A   Scattered Clouds
11:55 PM 42.8 °F 35.6 °F 76% 30.19 in 10.0 mi Calm Calm - N/A   Scattered Clouds